Wind_Speed
23 22 22 20 20 21 21 21 19 16 14 16 14 13 15 16 16 17 20 22 23 26 29 32 32 27 23 23 21 18 15 13 13 14 15 14 14 13 14 15 15 16 15 15 16 16 17 18 18 19 19 19 19 19 19 18 16 11 9 12 14 13
23 22 21 20 20 20 17 15 14 16 17 14 10 12 15 15 17 19 19 19 21 23 25 29 28 24 22 20 17 15 14 14 15 16 16 16 15 15 14 14 15 16 16 17 18 18 17 18 18 18 19 19 20 20 21 20 17 11 11 14 15 14
22 21 22 20 20 19 17 17 19 19 17 13 12 14 14 16 18 19 18 19 21 21 22 24 22 21 22 19 14 13 14 15 17 18 19 18 17 16 14 15 16 17 18 18 19 18 18 18 18 18 18 19 20 21 22 21 17 13 13 16 15 16
22 21 23 22 20 20 19 20 20 18 16 15 15 15 16 18 18 19 20 21 21 21 22 23 20 20 19 15 12 13 15 18 20 21 21 21 19 17 16 16 17 17 18 19 19 18 17 17 17 17 18 19 21 22 23 22 17 13 14 17 17 17
23 23 23 22 21 20 19 19 18 18 19 19 17 16 16 17 17 19 20 20 19 19 20 19 17 15 14 13 13 13 15 18 20 21 22 20 19 19 18 17 18 18 18 18 18 17 17 16 17 18 18 19 21 22 23 22 18 14 15 18 19 18
21 22 21 20 21 21 22 22 21 21 22 20 18 16 16 17 19 18 16 14 14 13 13 13 13 14 14 13 12 12 13 14 16 18 18 16 17 18 18 17 16 16 16 17 18 17 17 16 17 17 17 18 19 21 22 21 18 16 17 20 21 19
21 21 20 21 22 23 22 22 21 22 21 19 18 18 19 18 15 12 11 10 10 10 10 11 13 14 13 12 12 12 11 11 13 14 13 13 14 15 14 13 13 13 14 16 17 16 16 16 16 15 16 17 18 20 21 20 18 16 18 21 20 20
22 23 23 24 24 23 22 21 21 20 18 18 18 18 17 13 8 9 11 11 12 12 13 13 13 12 11 11 12 13 12 11 12 14 13 12 12 11 11 12 12 14 13 12 14 15 15 14 14 14 15 16 17 18 18 18 17 17 19 19 19 19
22 24 24 24 23 22 22 22 21 17 16 16 17 16 13 11 10 11 12 13 15 16 16 16 14 12 11 11 11 12 12 12 12 14 14 12 12 11 12 12 11 12 13 11 12 15 14 13 13 13 14 14 15 15 17 19 18 17 18 18 17 18
22 24 24 23 22 20 20 20 18 16 15 15 15 14 12 12 11 12 13 15 17 17 16 13 12 12 12 11 12 12 12 12 11 13 13 13 13 13 13 12 11 11 14 12 11 13 14 12 11 12 13 13 13 14 16 19 19 17 17 16 15 16
22 22 22 20 19 18 17 17 16 16 15 14 15 14 13 13 13 14 15 16 16 16 14 12 11 11 11 11 12 11 11 11 11 11 11 12 13 13 12 14 13 13 15 14 10 10 12 12 11 11 12 11 12 13 15 20 19 16 16 15 15 15
21 20 20 19 18 17 15 15 15 15 14 13 14 13 13 13 14 14 13 14 14 13 13 13 11 11 11 11 11 11 11 10 9 9 10 10 11 11 11 13 13 11 13 14 12 9 10 12 11 10 10 10 11 11 15 19 17 15 16 15 15 15
19 18 18 18 17 15 15 15 13 12 11 11 12 12 12 12 12 12 12 13 14 13 13 12 11 12 11 11 11 11 9 8 7 8 9 9 10 9 9 9 8 8 9 11 12 10 9 10 11 10 9 8 9 11 14 15 13 14 15 15 14 13
17 18 17 17 16 14 13 13 12 11 10 11 11 11 10 10 11 12 12 12 13 13 13 12 11 11 11 11 11 10 8 7 7 8 9 8 8 8 8 7 6 7 9 11 12 11 10 9 9 10 8 7 9 11 12 13 13 14 15 15 14 13
16 16 16 16 15 14 13 13 12 12 13 13 12 10 10 10 11 12 11 10 10 11 11 12 12 11 11 10 9 9 9 8 7 8 7 7 6 7 8 7 6 8 9 9 9 10 10 8 9 9 9 11 12 12 11 13 14 15 15 15 15 15
15 15 14 15 15 14 14 14 13 14 15 13 11 11 10 10 10 10 10 10 9 10 10 11 12 12 11 10 9 9 9 8 7 7 7 7 6 6 6 5 6 6 6 5 6 8 8 8 9 8 9 14 14 12 11 12 14 14 14 15 16 16
15 15 14 14 14 14 15 15 15 15 14 12 12 11 10 9 9 9 9 9 10 10 9 10 11 12 12 11 10 10 9 9 8 6 5 6 5 4 4 4 5 5 4 5 7 8 8 7 8 8 10 13 14 11 10 11 12 12 13 14 16 16
16 15 14 14 15 15 16 17 17 16 14 13 11 10 9 9 9 8 8 9 9 10 10 10 11 12 12 12 11 11 10 10 9 7 5 5 5 4 4 4 4 5 6 7 9 8 7 8 9 10 10 11 12 9 8 10 10 11 12 14 16 16
17 16 15 16 15 15 16 17 18 17 14 13 11 10 10 9 7 7 7 8 9 10 11 11 12 12 12 12 12 11 10 10 9 8 6 5 5 5 5 5 5 5 6 8 9 7 8 9 9 10 9 9 9 8 8 10 10 11 13 14 16 17
18 18 17 17 16 15 16 18 19 18 15 13 11 10 9 7 6 7 7 9 10 11 11 12 12 13 14 14 13 12 11 10 10 9 7 5 5 5 5 6 6 6 8 8 8 7 7 8 9 8 8 8 7 7 9 10 10 12 13 14 15 17
19 18 18 17 17 16 17 19 20 19 16 13 11 10 8 7 7 8 9 10 11 11 12 12 13 14 15 15 14 12 11 10 10 10 8 5 5 6 6 7 6 7 8 8 7 7 8 8 8 8 7 6 7 8 9 9 10 11 13 14 15 15
20 20 19 19 18 17 18 19 20 19 17 13 11 10 9 8 8 9 10 10 11 12 12 13 13 15 15 14 14 12 10 10 10 10 9 6 6 7 8 8 7 7 8 8 6 8 9 9 10 9 7 6 7 9 9 9 11 12 13 14 15 15
20 21 20 20 19 18 18 20 20 19 17 14 11 11 10 9 10 10 10 11 11 12 12 12 13 14 14 13 12 12 10 10 9 9 8 7 7 8 8 8 7 7 8 8 7 8 9 10 10 10 7 6 7 8 9 10 11 12 14 15 15 15
22 21 20 20 20 19 20 21 21 19 16 14 12 12 11 11 11 10 11 11 11 11 11 12 13 13 13 11 11 10 10 10 9 8 7 6 7 8 9 9 8 8 8 8 7 8 9 9 10 9 8 8 9 10 9 10 11 12 13 14 14 15
22 21 20 20 21 20 22 22 22 20 17 15 14 13 12 11 11 11 11 12 11 12 12 12 13 13 13 11 10 9 9 9 9 8 7 7 7 7 8 9 9 9 9 9 9 8 8 9 9 9 9 10 11 12 10 11 11 12 14 14 13 13
20 18 18 20 21 22 24 25 24 21 18 16 15 14 12 12 12 12 12 12 12 12 12 13 13 12 11 10 10 9 9 9 9 9 8 7 7 6 7 8 9 9 10 10 10 9 8 8 9 9 9 10 12 12 11 12 13 13 15 15 14 14
16 17 18 20 21 22 23 23 23 21 19 17 15 14 13 12 12 12 12 12 12 12 12 13 13 12 11 10 9 9 10 10 10 9 8 7 8 7 7 8 8 9 9 10 11 11 9 9 9 9 10 10 11 12 12 13 14 15 15 15 14 15
14 15 17 20 22 21 20 18 18 18 18 17 16 14 14 13 13 13 12 12 11 10 10 11 12 12 12 11 10 9 9 10 10 10 9 8 9 9 9 9 10 10 10 10 11 12 11 10 9 9 10 10 10 12 13 14 15 16 15 14 14 15
15 15 17 19 20 21 19 18 16 18 17 16 15 15 15 15 13 12 11 10 9 8 8 10 11 12 12 12 11 11 10 10 10 10 9 9 10 11 12 12 12 11 11 11 12 12 13 12 11 12 12 12 11 12 13 14 14 14 14 14 14 15
18 17 19 20 20 22 21 18 14 15 15 14 13 15 15 14 13 12 11 10 8 7 7 9 9 10 11 12 12 13 12 12 12 11 11 10 11 12 13 14 13 13 12 12 12 13 14 14 14 15 15 15 14 13 13 13 13 13 13 14 15 15
18 15 15 16 16 18 18 14 10 12 12 12 12 14 14 13 12 12 11 10 9 9 8 9 10 11 12 12 13 14 14 14 14 14 13 13 13 13 14 15 15 14 13 13 13 14 15 15 16 17 17 16 15 14 12 12 12 12 13 13 14 15
16 14 12 12 12 13 14 13 13 12 11 11 12 13 12 12 12 11 10 9 9 10 9 10 11 11 12 13 14 15 15 16 16 16 15 14 14 14 15 16 16 16 14 13 14 14 15 16 16 17 17 16 15 14 12 12 11 12 12 12 13 14
15 14 12 11 11 11 12 13 13 13 13 12 12 13 12 12 13 11 10 10 9 9 9 11 12 12 13 14 14 14 15 16 16 16 16 15 15 15 16 17 17 17 15 14 14 14 14 15 15 16 17 16 15 14 12 12 11 11 12 12 13 14
13 13 13 13 13 12 12 12 13 14 15 14 14 13 12 13 13 13 11 10 10 9 10 11 12 11 12 11 11 12 12 13 14 14 15 16 16 16 17 17 16 16 15 14 14 14 14 14 14 14 14 13 12 11 11 11 11 11 12 13 13 14
14 14 15 15 13 13 12 13 15 16 15 16 15 14 13 14 15 14 13 12 11 11 11 10 9 9 9 8 8 9 10 12 12 12 13 14 15 16 16 16 15 15 15 15 14 14 14 13 12 12 11 11 10 10 10 10 11 11 12 13 13 14
17 16 16 16 14 15 15 15 17 18 17 17 17 16 15 16 17 16 16 15 12 12 10 9 9 9 8 8 8 8 10 11 12 12 12 13 14 14 14 14 15 15 16 16 16 16 16 15 14 13 12 12 11 11 11 11 11 11 11 12 12 13
18 17 19 18 17 18 17 16 17 18 18 18 19 18 17 19 20 20 18 17 14 13 11 10 11 11 10 10 9 9 10 11 12 12 12 12 12 13 13 14 14 15 16 17 17 17 17 17 17 16 15 15 14 13 13 12 12 11 11 12 12 12
Wind_Direction
285 284 283 285 281 278 282 282 276 271 283 291 284 278 277 272 270 274 275 276 277 280 279 273 268 260 253 261 268 270 266 265 271 271 272 273 273 271 270 270 271 272 267 262 259 255 250 249 248 249 250 252 253 254 255 257 256 255 254 256 258 263
284 284 281 282 281 279 280 279 272 281 293 292 284 286 283 267 265 274 274 275 278 277 277 278 274 262 258 266 268 265 265 271 275 273 275 276 275 272 270 269 271 271 268 261 256 252 248 247 248 248 250 252 253 254 256 257 256 254 250 253 258 263
289 282 276 276 276 275 275 280 282 289 292 286 285 284 275 266 271 277 275 279 284 281 281 283 276 265 264 266 268 271 273 279 280 278 278 278 276 272 269 268 267 265 262 258 254 252 249 248 249 250 251 251 253 255 256 256 254 252 252 255 258 262
288 282 280 280 279 278 280 286 287 286 288 289 287 277 267 268 273 273 276 285 287 283 282 280 273 268 261 258 274 284 284 285 282 280 279 278 276 272 268 264 260 258 257 256 254 253 251 250 251 251 251 251 252 254 255 258 257 253 255 258 257 261
280 281 283 284 281 282 287 290 288 287 288 289 288 280 270 270 274 278 285 288 282 279 278 272 264 257 250 260 283 292 293 291 284 280 277 275 274 270 264 258 254 252 252 254 254 253 252 251 251 250 249 250 251 253 256 259 260 253 250 253 255 257
276 276 281 281 280 286 290 290 288 289 288 286 286 280 275 280 284 285 288 281 271 274 274 266 257 248 254 275 290 295 299 296 289 283 275 270 268 266 265 259 250 247 250 253 252 253 252 249 247 249 250 250 251 253 256 258 258 253 246 248 251 252
272 271 274 279 283 287 289 287 285 287 287 286 283 278 279 285 287 283 285 278 269 274 275 272 262 254 265 284 289 291 297 297 291 286 284 278 267 266 264 255 248 249 253 253 251 250 248 245 244 247 249 250 251 253 256 258 256 250 246 247 249 251
275 275 276 280 282 283 285 285 283 283 284 280 276 279 279 275 277 282 284 281 278 279 277 277 270 267 285 292 284 286 294 298 291 287 291 284 272 270 256 250 261 254 241 241 249 249 245 243 245 245 245 248 251 254 258 259 254 248 246 249 252 255
278 280 280 280 281 282 284 285 284 283 280 274 272 278 274 264 272 278 278 278 282 285 281 280 280 287 303 297 285 287 293 296 289 286 288 279 275 278 264 263 275 259 242 241 245 251 251 246 246 245 245 248 253 258 260 257 253 250 249 252 256 259
280 281 280 281 282 282 283 284 284 283 279 274 270 272 269 267 273 274 275 278 284 288 285 285 290 301 309 300 295 294 292 292 286 285 286 282 280 283 280 274 273 265 260 254 238 248 261 253 245 246 247 250 253 258 259 255 252 251 254 259 261 263
282 281 280 281 282 279 279 281 282 281 277 272 266 265 267 273 278 281 282 284 285 286 286 290 296 304 306 302 302 296 288 287 285 287 286 283 284 287 284 273 267 263 259 254 232 237 265 263 251 247 251 255 255 260 259 254 255 257 262 268 263 258
282 282 280 280 281 278 274 278 280 281 276 267 262 262 270 277 281 284 287 292 291 284 285 292 296 298 296 297 298 290 284 284 286 290 285 281 284 284 278 266 260 252 250 247 227 225 265 274 267 256 253 258 260 266 261 256 262 264 262 265 259 254
284 284 282 281 281 276 273 276 276 276 272 267 266 269 273 274 278 287 293 297 295 290 291 292 290 289 291 292 290 286 284 283 284 284 277 276 278 276 272 267 253 240 243 240 232 243 261 266 270 263 254 261 264 263 262 261 267 265 259 260 259 260
286 286 288 285 279 272 272 274 269 264 265 271 275 274 271 272 281 291 294 295 295 294 295 292 286 286 289 289 285 284 282 280 283 281 276 278 280 274 270 267 255 244 246 247 253 257 252 245 248 252 249 249 259 263 264 265 266 265 264 267 269 272
284 284 286 280 273 267 266 268 266 266 269 273 273 269 268 274 282 285 286 292 295 292 291 288 285 286 286 284 282 280 278 282 289 291 293 293 284 277 271 263 260 257 249 252 261 250 246 242 225 233 239 233 252 267 263 263 266 269 270 272 273 273
278 277 278 275 271 267 264 264 266 269 271 268 262 261 267 273 277 279 285 293 294 288 288 286 283 282 279 278 278 275 278 286 289 291 300 302 286 274 267 261 266 264 239 238 261 250 251 245 225 235 235 233 254 266 261 266 270 275 275 274 274 271
273 273 275 275 272 266 262 264 267 265 261 257 254 258 266 271 275 278 285 291 291 288 287 283 278 275 272 272 270 270 276 281 282 285 297 303 293 267 240 248 259 250 233 252 267 259 259 248 238 252 240 238 257 258 264 281 278 281 283 278 276 273
266 270 274 276 272 264 261 265 264 258 253 252 251 256 264 268 270 272 277 280 281 280 276 273 271 270 271 271 269 271 273 273 279 287 295 301 294 274 247 245 250 246 248 261 261 254 258 247 239 256 252 250 262 254 267 289 287 288 286 280 281 279
261 264 270 272 271 264 262 262 258 254 253 248 246 257 263 262 263 266 266 265 264 262 261 261 264 267 269 269 270 273 275 277 282 288 294 296 291 285 268 249 250 261 261 260 260 256 257 250 242 253 258 260 262 249 258 278 284 286 283 282 283 280
258 261 265 266 268 265 262 259 253 252 250 244 250 260 259 255 260 261 257 257 256 255 255 256 258 261 265 267 268 269 273 280 285 287 291 291 291 291 275 257 252 260 264 264 268 265 261 257 248 247 256 267 268 262 268 275 281 285 285 285 285 284
258 260 264 265 263 258 257 257 252 250 249 250 258 258 254 256 258 257 253 252 252 252 253 254 256 257 261 266 267 267 271 278 283 287 292 292 289 285 279 272 263 259 266 270 267 265 265 258 252 248 249 265 277 280 281 281 285 287 285 287 291 293
256 257 260 262 258 252 253 257 254 251 251 253 255 251 250 255 256 255 253 250 249 249 250 252 253 253 255 263 268 270 274 278 283 290 298 301 292 285 284 283 277 272 274 275 265 262 265 257 256 256 253 270 287 288 288 288 290 290 288 290 296 296
252 254 257 258 255 250 251 254 253 250 251 251 249 248 251 254 253 251 247 247 247 247 249 250 254 256 258 265 272 277 279 281 286 294 303 300 290 286 284 282 282 280 280 278 267 258 256 255 259 260 261 275 281 283 288 286 285 286 287 289 294 297
249 251 253 252 250 247 248 252 250 247 247 248 248 250 252 250 246 241 239 244 247 251 254 254 255 260 263 267 273 281 286 288 289 292 299 291 283 282 279 277 276 275 276 275 269 258 255 257 262 264 268 273 269 271 276 277 277 278 278 282 291 296
249 251 251 249 248 244 244 246 245 244 243 245 249 249 248 244 241 239 243 249 254 257 257 256 256 258 263 268 274 284 292 295 295 294 298 295 286 281 276 272 270 269 272 272 270 265 262 266 269 268 269 270 269 268 268 270 272 273 275 280 286 289
252 253 250 250 249 248 250 246 239 238 239 241 246 248 247 245 245 248 253 257 259 260 256 252 251 252 257 265 272 280 289 295 299 299 303 305 298 290 281 275 271 269 269 269 270 268 266 269 270 267 265 268 271 272 273 272 271 271 275 279 282 283
253 252 250 252 251 253 259 246 230 231 237 241 248 252 255 257 257 257 259 262 264 263 257 247 244 244 248 257 268 279 286 291 294 296 302 305 301 298 292 287 282 278 274 271 272 272 271 271 272 269 266 266 271 276 277 275 273 272 273 276 280 281
257 255 254 258 255 254 252 233 226 237 238 241 250 256 261 261 258 257 259 265 267 263 255 243 239 240 244 253 265 277 286 290 291 291 292 295 298 301 300 297 292 288 284 279 280 281 280 279 280 278 272 268 270 273 274 273 274 276 275 275 275 275
243 243 244 249 249 248 242 228 239 253 243 241 249 252 255 254 253 256 259 262 264 258 246 240 242 247 251 257 266 276 283 288 290 290 287 285 288 295 299 301 299 295 291 284 282 281 280 280 280 280 278 277 276 274 273 273 276 278 276 274 273 275
234 236 236 238 243 246 239 229 248 266 254 245 246 245 246 249 253 258 260 257 253 250 244 248 256 262 266 269 275 282 286 288 289 288 287 282 282 287 293 298 299 297 294 288 281 275 273 272 270 269 271 273 273 273 273 276 278 278 278 279 279 279
232 235 231 234 239 239 232 235 270 288 269 250 243 244 245 250 258 260 260 256 251 253 261 271 277 279 281 282 285 289 291 290 288 286 284 281 280 284 289 295 298 296 292 288 283 277 272 267 263 262 263 265 266 266 269 274 278 280 283 286 285 285
232 236 233 233 232 230 237 258 283 289 276 258 246 246 249 255 260 258 257 256 256 264 274 282 285 287 288 288 289 291 291 289 287 285 282 279 278 282 286 291 295 294 291 287 282 278 274 268 262 260 259 260 261 263 268 271 275 281 286 289 288 287
252 258 261 260 256 253 258 271 281 282 279 271 256 251 255 259 258 256 256 258 263 271 278 284 288 289 289 289 289 289 290 291 289 285 280 277 278 281 286 289 290 290 289 286 282 279 275 270 264 260 259 259 259 263 269 273 278 283 285 288 288 287
271 277 282 282 271 260 262 270 277 280 277 272 264 256 257 261 261 259 262 264 269 275 282 287 288 286 285 284 285 288 290 294 295 291 285 279 278 282 286 289 287 286 286 284 283 279 275 272 268 265 264 264 265 268 274 280 285 288 289 290 290 289
282 287 293 297 281 263 268 278 280 279 274 268 264 261 260 262 264 266 268 269 273 279 283 282 282 282 280 277 277 282 287 293 298 300 295 289 287 287 288 289 289 288 289 289 288 286 282 280 278 277 278 278 280 281 283 287 291 293 293 293 293 293
285 287 295 304 296 277 276 286 289 284 276 267 261 263 265 264 265 268 271 272 275 280 277 270 275 282 281 278 279 283 289 295 300 301 302 299 295 293 293 295 296 298 298 298 297 296 295 294 292 292 291 290 290 289 288 288 291 292 291 291 292 292
292 291 295 299 298 286 277 280 289 290 282 268 257 261 269 268 268 269 269 271 274 276 268 261 271 279 278 279 282 288 294 299 302 302 302 300 296 294 295 297 300 302 303 303 303 302 300 299 297 295 293 292 291 291 290 290 290 290 290 291 292 291
Height
5808 5808 5809 5808 5808 5808 5808 5809 5809 5810 5811 5811 5811 5810 5811 5812 5812 5812 5812 5812 5813 5813 5813 5812 5813 5814 5814 5815 5816 5817 5817 5817 5817 5818 5818 5818 5818 5818 5819 5819 5820 5822 5823 5823 5823 5823 5823 5824 5824 5824 5824 5824 5825 5826 5826 5827 5829 5832 5833 5831 5831 5832
5806 5806 5807 5806 5806 5806 5807 5808 5808 5810 5810 5810 5810 5810 5810 5810 5811 5811 5810 5811 5811 5811 5811 5811 5811 5813 5814 5815 5815 5816 5816 5816 5816 5816 5816 5816 5816 5816 5817 5818 5819 5820 5820 5821 5821 5821 5822 5822 5823 5823 5823 5824 5824 5824 5824 5825 5828 5831 5831 5830 5830 5831
5805 5805 5804 5804 5804 5805 5806 5807 5808 5809 5809 5810 5810 5809 5809 5809 5809 5809 5809 5810 5810 5809 5809 5809 5811 5812 5813 5814 5814 5815 5815 5815 5815 5814 5814 5814 5815 5815 5816 5816 5817 5817 5818 5818 5818 5819 5820 5821 5822 5822 5822 5822 5823 5823 5823 5823 5826 5830 5830 5829 5829 5830
5804 5803 5802 5803 5803 5804 5805 5806 5807 5807 5808 5808 5808 5808 5807 5807 5808 5808 5808 5808 5808 5807 5808 5808 5810 5811 5812 5813 5813 5813 5813 5813 5813 5813 5813 5813 5813 5813 5814 5814 5815 5815 5815 5815 5816 5817 5818 5819 5820 5821 5821 5821 5821 5821 5821 5822 5825 5828 5828 5827 5828 5828
5802 5802 5801 5802 5802 5803 5804 5804 5805 5805 5805 5806 5807 5807 5806 5806 5807 5807 5807 5806 5806 5806 5806 5807 5809 5810 5811 5811 5811 5811 5811 5811 5811 5811 5811 5811 5811 5811 5811 5811 5811 5812 5812 5813 5814 5815 5816 5817 5818 5819 5819 5820 5820 5820 5819 5820 5824 5827 5826 5825 5826 5827
5800 5800 5800 5800 5800 5801 5802 5803 5803 5802 5803 5804 5806 5806 5805 5805 5805 5806 5805 5804 5805 5805 5805 5806 5807 5809 5810 5810 5809 5809 5809 5809 5809 5808 5808 5808 5808 5808 5808 5808 5808 5810 5811 5811 5812 5813 5814 5815 5816 5817 5818 5818 5819 5818 5818 5819 5822 5824 5824 5823 5824 5825
5798 5798 5798 5799 5800 5800 5801 5801 5801 5801 5801 5803 5804 5804 5804 5804 5804 5804 5804 5804 5804 5804 5804 5805 5806 5807 5807 5807 5807 5807 5807 5807 5807 5806 5807 5807 5807 5807 5807 5807 5807 5808 5809 5810 5810 5811 5811 5813 5814 5816 5816 5817 5817 5817 5816 5817 5820 5821 5821 5821 5822 5823
5797 5797 5797 5798 5798 5799 5800 5800 5799 5800 5801 5802 5802 5802 5802 5802 5802 5803 5803 5802 5803 5803 5804 5805 5805 5805 5805 5805 5806 5805 5805 5805 5805 5805 5806 5806 5805 5805 5805 5805 5805 5805 5806 5808 5809 5809 5809 5810 5812 5814 5815 5815 5815 5815 5815 5816 5817 5818 5818 5819 5820 5821
5797 5797 5797 5797 5797 5797 5798 5798 5797 5798 5799 5799 5800 5801 5801 5801 5801 5802 5801 5800 5800 5801 5803 5803 5804 5803 5803 5804 5804 5804 5803 5803 5803 5803 5803 5803 5804 5805 5805 5805 5805 5804 5804 5805 5807 5809 5809 5809 5810 5812 5812 5813 5814 5814 5814 5813 5814 5815 5816 5818 5819 5821
5796 5796 5795 5795 5795 5796 5796 5797 5796 5796 5797 5797 5799 5800 5800 5800 5800 5801 5800 5800 5799 5800 5801 5802 5802 5802 5802 5802 5802 5802 5801 5801 5802 5802 5802 5802 5803 5804 5804 5804 5804 5804 5805 5804 5805 5808 5809 5809 5809 5810 5810 5811 5812 5813 5812 5811 5812 5815 5816 5818 5820 5821
5795 5794 5794 5793 5793 5794 5795 5796 5796 5795 5796 5797 5797 5799 5800 5800 5799 5799 5799 5799 5799 5799 5799 5800 5800 5800 5800 5800 5800 5800 5800 5801 5801 5801 5801 5801 5801 5802 5803 5803 5803 5804 5805 5805 5805 5806 5809 5809 5808 5808 5808 5810 5810 5810 5810 5810 5812 5815 5816 5818 5819 5819
5792 5792 5792 5791 5792 5793 5794 5795 5795 5794 5795 5796 5797 5798 5799 5799 5798 5799 5798 5798 5797 5797 5797 5798 5798 5798 5798 5798 5798 5799 5800 5800 5800 5801 5801 5800 5800 5801 5801 5801 5801 5803 5804 5804 5804 5805 5807 5808 5807 5806 5807 5808 5809 5808 5808 5810 5812 5814 5814 5815 5816 5816
5789 5790 5790 5789 5790 5791 5792 5794 5794 5794 5794 5795 5796 5797 5798 5798 5798 5797 5797 5797 5796 5795 5795 5796 5796 5796 5796 5796 5796 5797 5798 5799 5799 5800 5800 5800 5800 5799 5799 5799 5800 5801 5802 5803 5804 5804 5805 5806 5806 5806 5805 5807 5808 5808 5808 5809 5812 5812 5811 5812 5814 5815
5788 5788 5789 5788 5789 5790 5791 5792 5793 5794 5794 5795 5795 5796 5796 5797 5797 5797 5796 5796 5795 5794 5794 5794 5795 5795 5795 5795 5795 5795 5796 5797 5797 5798 5799 5799 5799 5798 5798 5799 5800 5801 5802 5803 5803 5804 5803 5804 5804 5804 5805 5806 5807 5807 5808 5809 5810 5810 5810 5811 5813 5814
5787 5788 5788 5787 5788 5789 5791 5791 5792 5793 5793 5794 5794 5795 5795 5796 5796 5796 5796 5795 5795 5794 5794 5793 5793 5793 5794 5794 5795 5794 5795 5795 5796 5797 5798 5798 5798 5797 5797 5798 5799 5800 5801 5802 5802 5802 5802 5803 5802 5803 5804 5806 5805 5806 5807 5807 5807 5808 5809 5810 5811 5812
5787 5787 5787 5786 5787 5788 5790 5790 5791 5791 5792 5792 5793 5794 5794 5795 5795 5795 5795 5794 5794 5793 5793 5792 5792 5792 5793 5794 5794 5794 5794 5795 5796 5797 5798 5798 5797 5796 5796 5798 5798 5799 5800 5801 5801 5800 5802 5803 5802 5802 5803 5804 5804 5805 5805 5805 5805 5806 5808 5808 5809 5810
5785 5785 5785 5786 5786 5787 5788 5789 5790 5790 5791 5791 5792 5793 5793 5793 5794 5794 5793 5793 5792 5792 5792 5792 5792 5792 5793 5794 5794 5794 5794 5795 5796 5797 5797 5797 5797 5796 5796 5797 5798 5799 5799 5800 5800 5801 5802 5802 5802 5802 5802 5802 5803 5804 5804 5804 5804 5805 5806 5807 5807 5807
5783 5784 5785 5785 5785 5787 5788 5788 5789 5790 5790 5790 5791 5791 5791 5792 5792 5792 5792 5791 5791 5791 5791 5791 5792 5792 5792 5793 5793 5793 5794 5795 5795 5796 5796 5796 5797 5796 5796 5797 5797 5798 5799 5799 5800 5801 5802 5801 5801 5801 5801 5801 5801 5804 5804 5804 5803 5804 5805 5804 5804 5804
5782 5783 5784 5784 5784 5785 5786 5787 5788 5788 5789 5789 5790 5790 5790 5790 5790 5790 5790 5790 5790 5791 5791 5791 5792 5792 5792 5792 5793 5794 5794 5794 5794 5795 5795 5796 5796 5796 5796 5796 5796 5797 5798 5798 5800 5800 5800 5800 5799 5799 5800 5800 5801 5803 5803 5802 5803 5803 5803 5802 5802 5802
5781 5781 5781 5781 5782 5783 5784 5785 5786 5787 5787 5788 5788 5788 5788 5788 5788 5789 5789 5789 5789 5790 5790 5791 5792 5792 5792 5791 5792 5793 5794 5794 5793 5794 5795 5795 5795 5795 5795 5796 5796 5796 5796 5797 5799 5799 5798 5798 5798 5798 5799 5799 5800 5801 5802 5802 5802 5802 5801 5801 5801 5801
5777 5778 5778 5779 5780 5781 5782 5783 5784 5785 5786 5786 5787 5787 5787 5787 5787 5787 5788 5788 5788 5788 5789 5789 5790 5791 5790 5789 5790 5791 5792 5792 5792 5793 5794 5794 5794 5795 5795 5795 5795 5795 5795 5796 5797 5797 5796 5797 5798 5799 5798 5798 5799 5800 5800 5800 5800 5801 5801 5799 5799 5799
5774 5775 5776 5777 5778 5779 5780 5781 5783 5784 5785 5786 5786 5786 5786 5786 5787 5787 5787 5787 5787 5787 5788 5788 5788 5789 5789 5789 5789 5789 5790 5791 5791 5791 5792 5792 5793 5793 5794 5794 5794 5794 5795 5795 5796 5796 5795 5795 5797 5798 5798 5798 5799 5798 5798 5798 5798 5800 5800 5798 5797 5797
5770 5772 5773 5775 5777 5778 5779 5780 5782 5783 5784 5785 5785 5785 5785 5786 5786 5787 5787 5787 5787 5787 5787 5787 5787 5786 5787 5788 5788 5788 5789 5790 5790 5790 5791 5791 5792 5792 5792 5793 5793 5794 5794 5795 5795 5795 5795 5795 5796 5796 5796 5797 5798 5797 5797 5797 5798 5799 5799 5798 5797 5795
5768 5770 5772 5774 5776 5777 5778 5780 5782 5783 5783 5784 5784 5785 5785 5786 5786 5786 5786 5786 5786 5786 5786 5786 5785 5785 5785 5786 5787 5787 5788 5788 5789 5790 5790 5791 5791 5792 5792 5792 5793 5793 5793 5794 5794 5794 5794 5794 5794 5794 5794 5795 5796 5796 5796 5796 5797 5797 5797 5797 5797 5795
5766 5768 5771 5773 5775 5777 5778 5780 5781 5782 5782 5783 5784 5784 5785 5785 5785 5785 5785 5786 5785 5785 5785 5784 5784 5784 5784 5784 5785 5786 5786 5787 5788 5788 5789 5789 5790 5791 5791 5792 5792 5792 5792 5792 5793 5793 5793 5793 5792 5793 5793 5794 5794 5794 5795 5795 5796 5796 5796 5796 5796 5795
5766 5768 5771 5772 5774 5776 5777 5779 5781 5781 5782 5782 5783 5783 5784 5784 5785 5785 5785 5785 5785 5784 5784 5784 5783 5783 5783 5783 5784 5785 5786 5786 5787 5787 5787 5788 5789 5790 5790 5790 5791 5791 5791 5791 5790 5790 5790 5790 5791 5791 5792 5792 5793 5792 5793 5794 5795 5796 5795 5795 5795 5794
5767 5768 5770 5772 5773 5775 5776 5778 5779 5781 5781 5781 5782 5782 5783 5784 5784 5785 5785 5784 5784 5783 5783 5783 5783 5783 5783 5783 5783 5784 5785 5785 5786 5786 5786 5787 5787 5788 5788 5788 5789 5789 5789 5789 5788 5787 5787 5788 5789 5790 5791 5791 5791 5791 5792 5792 5794 5794 5794 5794 5793 5792
5767 5768 5770 5771 5772 5775 5776 5777 5779 5780 5780 5780 5780 5781 5782 5783 5783 5783 5783 5783 5782 5782 5782 5782 5782 5782 5782 5783 5783 5783 5784 5784 5785 5785 5786 5786 5786 5786 5786 5786 5787 5787 5787 5787 5786 5785 5785 5785 5786 5787 5788 5788 5789 5790 5791 5791 5792 5793 5792 5792 5791 5790
5765 5766 5767 5769 5770 5773 5775 5776 5777 5777 5777 5777 5778 5780 5781 5781 5782 5781 5781 5781 5781 5781 5781 5782 5782 5782 5782 5782 5782 5783 5783 5784 5784 5784 5785 5785 5785 5785 5784 5785 5785 5785 5785 5784 5784 5784 5784 5784 5785 5785 5785 5785 5787 5789 5789 5790 5791 5791 5790 5790 5789 5789
5762 5763 5764 5766 5768 5770 5771 5773 5775 5775 5775 5775 5777 5778 5778 5779 5779 5779 5779 5779 5780 5780 5781 5781 5781 5781 5781 5781 5781 5781 5782 5782 5783 5783 5784 5784 5784 5784 5783 5783 5783 5783 5783 5783 5783 5783 5783 5783 5783 5783 5784 5784 5786 5787 5788 5788 5788 5788 5788 5788 5787 5787
5760 5762 5764 5765 5767 5768 5770 5773 5774 5774 5774 5774 5775 5776 5776 5777 5777 5777 5778 5778 5778 5779 5779 5780 5780 5780 5780 5780 5780 5780 5780 5781 5781 5782 5782 5782 5783 5782 5782 5782 5781 5781 5781 5781 5781 5781 5782 5782 5782 5782 5783 5784 5785 5786 5786 5786 5786 5786 5786 5786 5785 5785
5760 5762 5763 5765 5766 5769 5771 5772 5772 5772 5773 5773 5773 5774 5775 5775 5776 5776 5776 5776 5777 5777 5778 5778 5778 5778 5778 5778 5778 5779 5779 5779 5779 5780 5780 5781 5781 5781 5781 5780 5780 5780 5780 5780 5780 5780 5780 5780 5781 5781 5782 5783 5784 5784 5783 5783 5783 5783 5782 5783 5782 5782
5759 5761 5763 5765 5766 5768 5769 5769 5770 5770 5771 5771 5772 5772 5774 5774 5774 5775 5775 5775 5775 5776 5776 5776 5776 5776 5776 5776 5776 5777 5777 5777 5777 5777 5778 5778 5779 5779 5779 5779 5779 5778 5778 5778 5778 5779 5779 5779 5779 5780 5781 5781 5781 5781 5780 5780 5780 5780 5779 5779 5780 5780
5758 5759 5761 5762 5763 5764 5765 5767 5767 5768 5769 5769 5770 5771 5772 5773 5773 5773 5773 5773 5773 5774 5774 5774 5774 5774 5774 5774 5774 5774 5775 5775 5775 5775 5775 5775 5776 5776 5776 5777 5777 5777 5777 5777 5777 5777 5777 5777 5777 5777 5778 5778 5778 5778 5777 5777 5777 5777 5776 5777 5777 5777
5757 5757 5758 5759 5760 5761 5763 5764 5764 5765 5766 5767 5768 5769 5770 5771 5771 5772 5772 5772 5772 5772 5772 5772 5772 5772 5772 5772 5772 5772 5772 5772 5772 5772 5772 5772 5773 5773 5774 5774 5774 5775 5775 5775 5775 5775 5774 5774 5774 5774 5774 5774 5774 5774 5774 5774 5774 5774 5774 5774 5775 5775
5754 5755 5756 5757 5758 5759 5761 5761 5762 5762 5763 5765 5766 5767 5767 5768 5769 5770 5770 5771 5771 5770 5770 5770 5771 5771 5770 5770 5770 5770 5770 5770 5770 5770 5770 5770 5770 5771 5771 5772 5772 5773 5773 5773 5772 5772 5772 5771 5771 5771 5771 5771 5771 5772 5772 5772 5772 5773 5773 5773 5773 5773
5752 5753 5754 5754 5755 5757 5758 5759 5759 5760 5761 5762 5763 5764 5765 5765 5766 5767 5768 5768 5769 5769 5769 5769 5769 5769 5769 5769 5768 5768 5768 5769 5768 5768 5768 5768 5769 5769 5769 5770 5770 5771 5771 5771 5771 5771 5770 5770 5770 5770 5770 5770 5770 5770 5771 5771 5771 5772 5772 5771 5771 5771